Home > Weather > Davenport > Past weeks

Flag for USA Past Weather in Davenport, Iowa, USA — Yesterday and Last 2 Weeks

Now
84 °F

Sunny.


Feels Like: 88 °F
Forecast: 72 / 90 °F
Wind: 5 mph from West

Location: Davenport Municipal Airport

Current Time: Jun 26, 2016 at 2:15:37 PM

Latest Report: Jun 26, 2016 at 1:52 PM


Visibility: 10 mi

Pressure: 30.04 "Hg

Humidity: 63%

Dew Point: 70 °F

Location of DavenportLocation

Past Weather in Davenport — Graph

°F

Davenport Temperature Yesterday

Maximum temperature yesterday: 90 °F (at 3:52 PM)
Minimum temperature yesterday: 68 °F (at 1:52 AM)
Average temperature yesterday: 80 °F

High & Low Weather Summary for the Past Weeks

 TemperatureHumidityPressure
High91 °F (Jun 15, 3:52 PM)97% (Jun 22, 3:52 AM)30.22 "Hg (Jun 22, 3:52 AM)
Low60 °F (Jun 18, 4:52 AM)32% (Jun 18, 2:52 PM)29.68 "Hg (Jun 14, 8:52 PM)
Average75 °F70%29.97 "Hg
* Reported Jun 11 12:03 PM — Jun 26 12:52 PM, Davenport, Weather by CustomWeather, © 2016

Note: Actual official high and low records may vary slightly from our data, if they occured in-between our weather recording intervals... More about our weather records

Advertising

Davenport Weather History for the Previous 24 Hours

Scroll right to see more
 ConditionsComfort  
Time TempWeatherWind HumidityBarometerVisibility
12:52 PM
Sun, Jun 26
82 °FSunny.3 mph72%30.04 "Hg10 mi
11:52 AM81 °FPassing clouds.6 mph77%30.05 "Hg10 mi
10:52 AM78 °FSunny.6 mph82%30.03 "Hg10 mi
9:52 AM76 °FPassing clouds.5 mph82%30.02 "Hg10 mi
8:52 AM74 °FPassing clouds.5 mph88%30.02 "Hg10 mi
7:52 AM71 °FOvercast.8 mph93%30.00 "Hg10 mi
7:00 AM69 °FThundershowers. Partly sunny.5 mph96%29.99 "Hg8 mi
5:56 AM70 °FStrong thunderstorms. Fog.16 mph97%30.04 "Hg1 mi
5:02 AM74 °FThundershowers. Mostly cloudy.15 mph85%30.00 "Hg10 mi
5:00 AM74 °FMostly cloudy.15 mph85%29.99 "Hg10 mi
3:52 AM77 °FPassing clouds.12 mph82%29.90 "Hg10 mi
2:52 AM78 °FPassing clouds.10 mph79%29.90 "Hg10 mi
1:52 AM79 °FPassing clouds.10 mph79%29.91 "Hg10 mi
12:52 AM80 °FClear.13 mph76%29.91 "Hg10 mi
11:52 PM
Sat, Jun 25
80 °FClear.10 mph79%29.93 "Hg10 mi
10:52 PM82 °FClear.10 mph74%29.95 "Hg10 mi
9:52 PM83 °FClear.10 mph72%29.95 "Hg10 mi
8:52 PM84 °FSunny.12 mph72%29.92 "Hg10 mi
7:52 PM86 °FSunny.14 mph63%29.91 "Hg10 mi
6:52 PM87 °FSunny.17 mph61%29.92 "Hg10 mi
5:52 PM88 °FSunny.13 mph61%29.93 "Hg10 mi
4:52 PM89 °FSunny.13 mph59%29.94 "Hg10 mi
3:52 PM90 °FScattered clouds.15 mph59%29.95 "Hg10 mi
2:52 PM89 °FScattered clouds.15 mph63%29.96 "Hg10 mi
Weather by CustomWeather, © 2016

See weather overviewHow to use our weather pages